When you browse on this site, cookies collect data to enhance your experience and personalize the content and advertising you see.
Visit our Privacy Policy to learn more. By continuing to use the site, you agree to this use of cookies and data.
  • In Denmark
  • List of Countries
  • For 7 days
  • Water Temperature
  • Satellite Maps
  • Weather Map
  • Weather Widgets
  • user-avatar
    Login

    Hourly Weather Zarka

    Today, 25 April, Thursday

    Time Temperature Precipitation Wind Pressure Humidity
    00:00 +17°C° 0 mm 2 mps 709 mmHg 40%
    01:00 +17°C° 0 mm 2 mps 709 mmHg 41%
    02:00 +16°C° 0 mm 1 mps 708 mmHg 47%
    03:00 +16°C° 0 mm 1 mps 708 mmHg 46%
    04:00 +16°C° 0 mm 1 mps 708 mmHg 45%
    05:00 +15°C° 0 mm 1 mps 708 mmHg 45%
    06:00 +17°C° 0 mm 2 mps 709 mmHg 38%
    07:00 +19°C° 0 mm 3 mps 709 mmHg 32%
    08:00 +20°C° 0 mm 3 mps 709 mmHg 25%
    09:00 +22°C° 0 mm 3 mps 709 mmHg 23%
    10:00 +24°C° 0 mm 3 mps 709 mmHg 21%
    11:00 +25°C° 0 mm 2 mps 709 mmHg 19%
    12:00 +25°C° 0 mm 2 mps 709 mmHg 18%
    13:00 +26°C° 0 mm 1 mps 709 mmHg 18%
    14:00 +26°C° 0 mm 1 mps 708 mmHg 17%
    15:00 +26°C° 0 mm 1 mps 708 mmHg 18%
    16:00 +26°C° 0 mm 2 mps 708 mmHg 19%
    17:00 +26°C° 0 mm 3 mps 708 mmHg 20%
    18:00 +25°C° 0 mm 3 mps 707 mmHg 26%
    19:00 +23°C° 0 mm 2 mps 707 mmHg 32%
    20:00 +21°C° 0 mm 2 mps 707 mmHg 38%
    21:00 +20°C° 0 mm 2 mps 707 mmHg 41%
    22:00 +20°C° 0 mm 2 mps 707 mmHg 43%
    23:00 +19°C° 0 mm 2 mps 707 mmHg 46%

    Tomorrow, 26 April, Friday

    Time Temperature Precipitation Wind Pressure Humidity
    00:00 +19°C° 0 mm 1 mps 707 mmHg 46%
    01:00 +19°C° 0 mm 1 mps 707 mmHg 46%
    02:00 +18°C° 0 mm 1 mps 707 mmHg 46%
    03:00 +17°C° 0 mm 2 mps 706 mmHg 45%
    04:00 +17°C° 0 mm 2 mps 706 mmHg 43%
    05:00 +16°C° 0 mm 2 mps 706 mmHg 42%
    06:00 +18°C° 0 mm 3 mps 706 mmHg 37%
    07:00 +20°C° 0 mm 4 mps 707 mmHg 32%
    08:00 +21°C° 0 mm 5 mps 707 mmHg 27%
    09:00 +22°C° 0 mm 4 mps 707 mmHg 25%
    10:00 +23°C° 0 mm 4 mps 707 mmHg 23%
    11:00 +26°C° 0 mm 4 mps 707 mmHg 21%
    12:00 +26°C° 0 mm 3 mps 707 mmHg 20%
    13:00 +27°C° 0 mm 2 mps 706 mmHg 19%
    14:00 +27°C° 0 mm 2 mps 706 mmHg 19%
    15:00 +27°C° 0 mm 2 mps 706 mmHg 19%
    16:00 +27°C° 0 mm 2 mps 705 mmHg 19%
    17:00 +27°C° 0 mm 2 mps 705 mmHg 20%
    18:00 +25°C° 0 mm 2 mps 705 mmHg 24%
    19:00 +24°C° 0 mm 2 mps 705 mmHg 29%
    20:00 +23°C° 0 mm 2 mps 705 mmHg 34%
    21:00 +21°C° 0 mm 2 mps 705 mmHg 38%
    22:00 +20°C° 0 mm 2 mps 705 mmHg 43%
    23:00 +20°C° 0 mm 2 mps 705 mmHg 47%

    Day after tomorrow, 27 April, Saturday

    Time Temperature Precipitation Wind Pressure Humidity
    00:00 +19°C° 0 mm 2 mps 704 mmHg 43%
    01:00 +19°C° 0 mm 2 mps 704 mmHg 40%
    02:00 +19°C° 0 mm 2 mps 704 mmHg 37%
    03:00 +18°C° 0 mm 2 mps 704 mmHg 35%
    04:00 +18°C° 0 mm 2 mps 704 mmHg 32%
    05:00 +17°C° 0 mm 3 mps 704 mmHg 30%
    06:00 +19°C° 0 mm 3 mps 704 mmHg 27%
    07:00 +21°C° 0 mm 4 mps 705 mmHg 24%
    08:00 +22°C° 0 mm 5 mps 705 mmHg 21%
    09:00 +25°C° 0 mm 4 mps 705 mmHg 19%
    10:00 +26°C° 0 mm 4 mps 705 mmHg 18%
    11:00 +27°C° 0 mm 4 mps 705 mmHg 17%
    12:00 +28°C° 0 mm 4 mps 705 mmHg 16%
    13:00 +29°C° 0 mm 3 mps 704 mmHg 15%
    14:00 +29°C° 0 mm 3 mps 704 mmHg 14%
    15:00 +29°C° 0 mm 3 mps 704 mmHg 17%
    16:00 +28°C° 0 mm 4 mps 703 mmHg 19%
    17:00 +27°C° 0 mm 5 mps 703 mmHg 22%
    18:00 +26°C° 0 mm 4 mps 703 mmHg 28%
    19:00 +23°C° 0 mm 4 mps 704 mmHg 35%
    20:00 +21°C° 0 mm 3 mps 704 mmHg 42%
    21:00 +21°C° 0 mm 3 mps 704 mmHg 43%
    22:00 +20°C° 0 mm 2 mps 704 mmHg 45%
    23:00 +19°C° 0 mm 2 mps 704 mmHg 47%

    28 April, Sunday

    Time Temperature Precipitation Wind Pressure Humidity
    00:00 +19°C° 0 mm 2 mps 704 mmHg 47%
    01:00 +19°C° 0 mm 2 mps 703 mmHg 46%
    02:00 +18°C° 0 mm 2 mps 703 mmHg 46%
    03:00 +18°C° 0 mm 2 mps 703 mmHg 47%
    04:00 +17°C° 0 mm 2 mps 703 mmHg 48%
    05:00 +17°C° 0 mm 2 mps 703 mmHg 50%
    06:00 +19°C° 0 mm 1 mps 704 mmHg 45%
    07:00 +21°C° 0 mm 1 mps 704 mmHg 40%
    08:00 +22°C° 0 mm 1 mps 705 mmHg 35%
    09:00 +24°C° 0 mm 1 mps 705 mmHg 31%
    10:00 +25°C° 0 mm 1 mps 705 mmHg 27%
    11:00 +27°C° 0 mm 2 mps 705 mmHg 23%
    12:00 +27°C° 0 mm 2 mps 705 mmHg 21%
    13:00 +28°C° 0 mm 3 mps 705 mmHg 19%
    14:00 +29°C° 0 mm 4 mps 704 mmHg 17%
    15:00 +29°C° 0 mm 4 mps 704 mmHg 18%
    16:00 +28°C° 0 mm 4 mps 704 mmHg 19%
    17:00 +28°C° 0 mm 4 mps 704 mmHg 21%
    18:00 +26°C° 0 mm 4 mps 704 mmHg 27%
    19:00 +25°C° 0 mm 3 mps 704 mmHg 34%
    20:00 +22°C° 0 mm 3 mps 704 mmHg 41%
    21:00 +21°C° 0 mm 2 mps 704 mmHg 45%
    22:00 +21°C° 0 mm 2 mps 704 mmHg 48%
    23:00 +21°C° 0 mm 1 mps 704 mmHg 52%

    29 April, Monday

    Time Temperature Precipitation Wind Pressure Humidity
    00:00 +20°C° 0 mm 1 mps 704 mmHg 50%
    01:00 +20°C° 0 mm 1 mps 703 mmHg 49%
    02:00 +19°C° 0 mm 1 mps 703 mmHg 48%
    03:00 +19°C° 0 mm 1 mps 703 mmHg 44%
    04:00 +19°C° 0 mm 1 mps 703 mmHg 41%
    05:00 +19°C° 0 mm 1 mps 703 mmHg 38%
    06:00 +21°C° 0 mm 1 mps 704 mmHg 31%
    07:00 +23°C° 0 mm 1 mps 704 mmHg 25%
    08:00 +25°C° 0 mm 2 mps 705 mmHg 18%
    09:00 +27°C° 0 mm 2 mps 705 mmHg 17%
    10:00 +28°C° 0 mm 2 mps 705 mmHg 15%
    11:00 +29°C° 0 mm 1 mps 705 mmHg 14%
    12:00 +30°C° 0 mm 2 mps 704 mmHg 14%
    13:00 +31°C° 0 mm 3 mps 704 mmHg 13%
    14:00 +31°C° 0 mm 3 mps 704 mmHg 13%
    15:00 +32°C° 0 mm 4 mps 704 mmHg 15%
    16:00 +30°C° 0 mm 5 mps 703 mmHg 17%
    17:00 +30°C° 0 mm 6 mps 703 mmHg 19%
    18:00 +28°C° 0 mm 5 mps 703 mmHg 23%
    19:00 +26°C° 0 mm 4 mps 704 mmHg 28%
    20:00 +25°C° 0 mm 3 mps 704 mmHg 32%
    21:00 +24°C° 0 mm 2 mps 704 mmHg 35%
    22:00 +23°C° 0 mm 2 mps 704 mmHg 37%
    23:00 +21°C° 0 mm 2 mps 704 mmHg 40%

    30 April, Tuesday

    Time Temperature Precipitation Wind Pressure Humidity
    00:00 +20°C° 0 mm 2 mps 703 mmHg 42%
    01:00 +19°C° 0 mm 2 mps 703 mmHg 45%
    02:00 +19°C° 0 mm 2 mps 703 mmHg 47%
    03:00 +18°C° 0 mm 2 mps 703 mmHg 49%
    04:00 +18°C° 0 mm 1 mps 703 mmHg 51%
    05:00 +18°C° 0 mm 1 mps 703 mmHg 53%
    06:00 +18°C° 0 mm 2 mps 704 mmHg 47%
    07:00 +19°C° 0 mm 2 mps 704 mmHg 42%
    08:00 +20°C° 0 mm 2 mps 704 mmHg 36%
    09:00 +22°C° 0 mm 3 mps 704 mmHg 31%
    10:00 +24°C° 0 mm 3 mps 704 mmHg 26%
    11:00 +26°C° 0 mm 3 mps 704 mmHg 20%
    12:00 +26°C° 0 mm 4 mps 704 mmHg 19%
    13:00 +27°C° 0 mm 4 mps 704 mmHg 17%
    14:00 +28°C° 0 mm 5 mps 704 mmHg 16%
    15:00 +27°C° 0 mm 5 mps 704 mmHg 18%
    16:00 +27°C° 0 mm 5 mps 704 mmHg 20%
    17:00 +26°C° 0 mm 5 mps 704 mmHg 23%
    18:00 +23°C° 0 mm 4 mps 704 mmHg 29%
    19:00 +22°C° 0 mm 4 mps 704 mmHg 36%
    20:00 +20°C° 0 mm 3 mps 704 mmHg 42%
    21:00 +19°C° 0 mm 3 mps 704 mmHg 48%
    22:00 +18°C° 0 mm 3 mps 703 mmHg 53%
    23:00 +17°C° 0 mm 3 mps 703 mmHg 58%
    Show more